COSMOS 2350 1 25315U 98025A 21054.87773296 -.00000110 00000-0 00000-0 0 9994 2 25315 13.2320 17.7837 0005898 67.4615 100.7159 1.00258563 83566 SL-12 R/B(2) 1 25318U 98025D 21054.91192944 -.00000027 00000-0 00000-0 0 9994 2 25318 13.2515 17.8174 0033565 75.8928 276.1981 1.00036306 83360